Location: Newark
(35.6799°N, 139.7636°E)
Time: 14:01:33
(UTC+00:00)

N. Korean satellite - Visible Passes

Search period start: 18 November 2019 00:00
Search period end: 28 November 2019 00:00
Orbit: 456 x 506 km, 97.2° (Epoch: 17 November)

Date Brightness Start Highest point End Pass type
(mag) Time Alt. Az. Time Alt. Az. Time Alt. Az.
18 Nov 6.7 20:46:03 10° N 20:49:40 56° WNW 20:53:14 10° SSW visible
19 Nov 10.1 08:53:33 10° WSW 08:55:16 13° W 08:57:01 10° WNW visible
19 Nov 7.2 20:20:40 10° NNE 20:24:19 61° E 20:27:54 10° S visible
20 Nov 9.0 08:26:37 10° SSW 08:29:44 27° W 08:32:56 10° NW visible
20 Nov 9.0 19:55:43 10° NE 19:58:53 26° E 20:01:59 10° SSE visible
21 Nov 7.2 08:00:42 10° S 08:04:18 64° W 08:07:58 10° NNW visible
21 Nov 10.1 19:31:42 10° ENE 19:33:20 13° E 19:34:57 10° ESE visible
22 Nov 6.5 20:37:50 10° N 20:41:31 74° WNW 20:45:06 10° SSW visible
23 Nov 9.9 08:44:38 10° SW 08:47:02 17° W 08:49:27 10° NW visible
23 Nov 7.8 20:12:34 10° NNE 20:16:07 46° E 20:19:35 10° S visible
24 Nov 8.5 08:18:09 10° SSW 08:21:30 35° W 08:24:56 10° NNW visible
24 Nov 9.4 19:47:49 10° NE 19:50:38 21° E 19:53:23 10° SE visible
25 Nov 6.7 07:52:26 10° S 07:56:05 84° WSW 07:59:48 10° NNW visible
25 Nov 7.0 20:55:11 10° N 20:58:38 40° WNW 21:02:00 10° SW visible
26 Nov 6.6 20:29:38 10° NNE 20:33:17 85° ESE 20:36:52 10° S visible
27 Nov 9.5 08:35:55 10° SW 08:38:45 21° W 08:41:38 10° NW visible
27 Nov 8.3 20:04:29 10° NNE 20:07:51 35° E 20:11:08 10° SSE visible
